Regional Weather Roundup
Issued by NWS

Home | Current Version | Previous Version | Graphics & Text | Print | Product List | Glossary On
Versions: 1 2 3 4 5 6 7 8 9 10 11 12 13 14 15 16 17 18 19 20 21 22 23 24 25 26 27 28 29 30 31 32 33 34 35 36 37 38 39 40 41 42 43 44 45 46 47 48 49 50
000
ASUS43 KMPX 272010
RWRMN
WEATHER ROUNDUP FOR MINNESOTA
NATIONAL WEATHER SERVICE TWIN CITIES/CHANHASSEN MN
300 PM CDT MON APR 27 2015


NOTE: "FAIR" INDICATES FEW OR NO CLOUDS BELOW 12,000 FEET WITH NO
SIGNIFICANT WEATHER AND/OR OBSTRUCTIONS TO VISIBILITY. N/A MEANS
CURRENT SKY AND/OR WEATHER CONDITIONS ARE NOT AVAILABLE.

MNZ060>063-068>070-272100-
   Twin Cities Metro

CITY           SKY/WX    TMP DP  RH WIND       PRES   REMARKS
TWIN CITIES    SUNNY     66  27  23 N6        30.18F
ST PAUL        SUNNY     67  25  20 N8        30.18F
CRYSTAL        SUNNY     68  24  19 N9        30.17F
BLAINE         SUNNY     68  25  19 N8        30.18F
LAKEVILLE      SUNNY     64  28  25 N9        30.18F
EDEN PRAIRIE   SUNNY     67  29  24 N8        30.17F
SOUTH ST PAUL  SUNNY     66  25  21 N8        30.18F
LAKE ELMO      FAIR      64  28  25 N10       30.19F
$$
MNZ001>005-007-008-013>017-022>024-027-028-272100-
   Northwest Minnesota

CITY           SKY/WX    TMP DP  RH WIND       PRES   REMARKS
BEMIDJI        SUNNY     69  29  21 SW8       30.17F
HALLOCK        PTSUNNY   61  39  44 N12       30.21R
ROSEAU         MOSUNNY   68  36  30 W10G17    30.18S
WARROAD        MOSUNNY   66  36  32 CALM      30.17S
THIEF RVR FALL MOSUNNY   68  30  24 NW7       30.18F
CROOKSTON      PTSUNNY   70  34  26 NW12G17   30.18S
FOSSTON        MOSUNNY   72  23  16 NW5       30.18F
DETROIT LAKES  MOSUNNY   68  27  21 W10       30.20S
MOORHEAD       MOSUNNY   68  23  18 E3        30.19S
PARK RAPIDS    SUNNY     71  22  15 CALM      30.16F
MAHNOMEN       FAIR      68  27  21 W9        30.17F
$$
MNZ006-009>011-018-025>026-272100-
   North Central Minnesota

CITY           SKY/WX    TMP DP  RH WIND       PRES   REMARKS
BAUDETTE       MOSUNNY   70  28  21 N8        30.16F
FLAG ISLAND    PTSUNNY   57  30  35 CALM      30.16F
INTL FALLS     MOSUNNY   67  26  21 VRB3      30.17F
WASKISH        MOSUNNY   68  32  26 SW7       30.17F
BIG FORK       MOSUNNY   72  23  16 NW5       30.17F
LONGVILLE      SUNNY     68  21  17 N3        30.18F
GRAND RAPIDS   MOSUNNY   64  21  19 W6        30.18F
CRANE LAKE     SUNNY     63  21  20 NE5       30.20F
ORR            SUNNY     68  12  11 CALM      30.15F
COOK           SUNNY     66  27  22 E3        30.18S
WALKER         FAIR      67  27  22 SE6       30.17S
$$
MNZ012-019>021-037-272100-
   Northeast Minnesota

CITY           SKY/WX    TMP DP  RH WIND       PRES   REMARKS
DULUTH         SUNNY     67  25  20 NW6       30.17F
ELY            SUNNY     63  21  20 W9        30.17F
HIBBING        SUNNY     67  20  16 VRB6      30.17F
EVELETH        SUNNY     64  25  22 NW9       30.18F
DULUTH HARBOR  SUNNY     48  28  46 N5        30.19S
TWO HARBORS    SUNNY     66  37  34 SE10      30.15F
SILVER BAY     SUNNY     61  30  31 S10       30.15F
GRAND MARAIS     N/A     45  35  68 W8        30.20F
G MARAIS ARPRT SUNNY     55  27  33 SE6       30.18S
$$
MNZ029>031-032-039>041-046>048-054>057-064-272100-
   West Central Minnesota

CITY           SKY/WX    TMP DP  RH WIND       PRES   REMARKS
FERGUS FALLS   SUNNY     66  14  13 CALM      30.20S
WHEATON        SUNNY     66  27  22 SW7       30.21S
MORRIS         SUNNY     70  21  16 NW7       30.19F
ALEXANDRIA     SUNNY     66  22  18 N6        30.20F
ELBOW LAKE     FAIR      66  22  19 W6        30.19F
WADENA         SUNNY     66  28  24 N5        30.18F
GLENWOOD       SUNNY     66  23  19 CALM      30.20F
APPLETON       SUNNY     70  14  11 NW3       30.20S
BENSON         SUNNY     70  12  11 N7        30.20F
ORTONVILLE     SUNNY     66  18  15 CALM      30.20S
MADISON        SUNNY     68  18  14 CALM      30.20S
WILLMAR        FAIR      66  25  20 NW9       30.21F
$$
MNZ033>034-036-042>043-049>051-058-059-272100-
   Central Minnesota

CITY           SKY/WX    TMP DP  RH WIND       PRES   REMARKS
ST CLOUD       SUNNY     68  22  17 NE7       30.18F
SAUK CENTRE    FAIR      65  26  22 CALM      30.19F
PAYNESVILLE    SUNNY     64  24  21 NW9       30.19F
AITKIN         SUNNY     70  -2   6 NW5       30.15F
PINE RIVER     SUNNY     66  34  30 NE10      30.20F
BRAINERD       SUNNY     67  22  18 VRB3      30.17F
STAPLES        SUNNY     70  21  16 N10       30.17F
LONG PRAIRIE   FAIR      64  25  22 NW3       30.19F
LITTLE FALLS   SUNNY     68  21  17 W3        30.17F
LITCHFIELD     SUNNY     66  27  22 NE8       30.19F
BUFFALO        SUNNY     66  23  19 NW7       30.19F
MAPLE LAKE     SUNNY     68  26  20 W6        30.19F
$$
MNZ037-044-045-052-053-272100-
   East Central Minnesota

CITY           SKY/WX    TMP DP  RH WIND       PRES   REMARKS
PRINCETON      SUNNY     70  23  17 CALM      30.18F
MORA           SUNNY     64  23  20 CALM      30.19
CAMBRIDGE      SUNNY     70  41  35 N3        30.16F
RUSH CITY      SUNNY     66  26  22 CALM      30.18F
MOOSE LAKE     SUNNY     68  28  22 CALM      30.15F
HINCKLEY       FAIR      68  27  21 NE3       30.17F
CLOQUET        SUNNY     66  18  15 N5        30.17F
MCGREGOR       SUNNY     68  21  17 NW8       30.17F
$$
MNZ071>073-080-081-089-090-097-098-272100-
   Southwest Minnesota

CITY           SKY/WX    TMP DP  RH WIND       PRES   REMARKS
MONTEVIDEO     SUNNY     72  21  15 CALM      30.20F
GRANITE FALLS  SUNNY     68  24  18 W3        30.21F
CANBY          SUNNY     66  21  17 CALM      30.21F
MARSHALL       SUNNY     66  21  18 S7        30.20S
REDWOOD FALLS  SUNNY     68  21  16 VRB3      30.19F
OLIVIA         SUNNY     68  25  19 N6        30.19S
PIPESTONE      SUNNY     66  18  15 E7        30.20S
WINDOM         SUNNY     64  21  19 NE2       30.20F
WORTHINGTON    SUNNY     64  25  22 E12       30.19F
JACKSON        SUNNY     68  19  15 E7        30.20F
TRACY          SUNNY     68  22  17 N10       30.20F
SLAYTON        SUNNY     66  20  17 N7G16     30.20F
$$
MNZ065>067-074>077-082>085-091>093-272100-
   South Central Minnesota

CITY           SKY/WX    TMP DP  RH WIND       PRES   REMARKS
MANKATO        SUNNY     64  27  24 NE10G17   30.19F
NEW ULM        SUNNY     66  21  18 N5        30.18F
FAIRMONT       SUNNY     66  27  22 E10G16    30.18F
GLENCOE        SUNNY     67  28  23 NE5       30.18F
FARIBAULT      SUNNY     66  27  22 N7        30.19F
OWATONNA       SUNNY     64  27  24 N7        30.19F
WASECA         SUNNY     64  28  25 N10       30.21F
ALBERT LEA     SUNNY     64  27  24 NE13G22   30.18F
$$
MNZ078>079-086>088-094>096-272100-
   Southeast Minnesota

CITY           SKY/WX    TMP DP  RH WIND       PRES   REMARKS
ROCHESTER      SUNNY     63  34  33 N16       30.19F
RED WING       SUNNY     68  25  19 N13       30.16F
STANTON        SUNNY     67  23  19 NE10G16   30.17F
DODGE CENTER   SUNNY     63  30  29 N12G18    30.18F
WINONA         SUNNY     66  34  30 NW12G17   30.16F
AUSTIN         SUNNY     63  34  34 N8        30.17F
PRESTON        SUNNY     61  33  35 N9G18     30.18S
$$
ABBREVIATIONS USED IN REMARKS
   TC - TEMPERATURES IN CELSIUS
  WCI - WIND CHILL INDEX
   HX - HEAT INDEX
  VSB - VISIBILITY
$$



USA.gov is the U.S. government's official web portal to all federal, state and local government web resources and services.